Regional Weather Roundup
Issued by NWS

Home | Current Version | Previous Version | Graphics & Text | Print | Product List | Glossary On
Versions: 1 2 3 4 5 6 7 8 9 10 11 12 13 14 15 16 17 18 19 20 21 22 23 24 25 26 27 28 29 30 31 32 33 34 35 36 37 38 39 40 41 42 43 44 45 46 47 48 49 50
000
ASUS43 KIND 121059
RWRIN

WEATHER ROUNDUP FOR INDIANA
NATIONAL WEATHER SERVICE INDIANAPOLIS IN
600 AM EST TUE DEC 12 2017

NOTE: "FAIR" INDICATES FEW OR NO CLOUDS BELOW 12,000 FEET WITH NO
SIGNIFICANT WEATHER AND/OR OBSTRUCTIONS TO VISIBILITY.

* - STATION DOES NOT REPORT WEATHER SUCH AS PRECIPITATION OR FOG.

+ - STATION NOT QUALITY CONTROLLED BY THE NATIONAL WEATHER SERVICE.
    USE DATA WITH CAUTION...ESPECIALLY DEWPOINT AND RELATIVE
    HUMIDITY OBSERVATIONS.

INZ001>003-010>013-019-020-121200-
NORTHWEST INDIANA

CITY           SKY/WX    TMP DP  RH WIND       PRES   REMARKS
GARY /AIRPORT/ CLOUDY    25  10  54 NW17G35   30.02R WCI  11
KNOX *+        CLOUDY    27  16  63 NW22      29.94R WCI  12
LA PORTE +     CLOUDY    24  13  63 N23G30    29.94R HAZE    WCI   9
MICHIGAN CITY+ CLOUDY    27  14  59 NW16G29   29.96R WCI  14
MONTICELLO +   PTCLDY    23  10  55 NW21G29   29.95R WCI   8
RENSSELAER +   MOCLDY    25   5  42 NW16      29.99R WCI  12

$$

LMZ046-743>745-121200-
SOUTHERN LAKE MICHIGAN

STATION/POSITION TIME  TEMP    WIND        PRES    WAVE
                       AIR SEA DIR/SP/G            HT
                 (UTC) (F)     (DEG/KT/KT) (MB)    (FT)
BURNS HARBOR     1040   27     340/ 20/ 30 1015.2R
MICHIGAN CITY    1030   27     340/ 33/ 39   N/A

$$

INZ004-005-014>016-021>024-121200-
NORTH CENTRAL INDIANA

CITY           SKY/WX    TMP DP  RH WIND       PRES   REMARKS
GOSHEN         LGT SNOW  24  20  84 N18G25    29.88R FOG     WCI  10
PERU/GRISSOM   CLOUDY    28  17  64 NW26G38   29.89R WCI  12
ROCHESTER +    CLOUDY    28  21  74 NW16      29.91R WCI  17
SOUTH BEND     LGT SNOW  22  17  81 NW21G29   29.92R WCI   6
WARSAW +       CLOUDY    27  18  69 NW13G24   29.88R WCI  16

$$

INZ006>009-017-018-025>027-121200-
NORTHEAST INDIANA

CITY           SKY/WX    TMP DP  RH WIND       PRES   REMARKS
AUBURN +       CLOUDY    27  18  69 NW20G30   29.85R WCI  13
FORT WAYNE     MOCLDY    28  17  63 NW16G29   29.85R WCI  16
KENDALLVILLE + CLOUDY    23  15  70 N17G23    29.84R WCI   9

$$

INZ028-029-035-036-043>045-051>053-121200-
WEST CENTRAL INDIANA

CITY           SKY/WX    TMP DP  RH WIND       PRES   REMARKS
CRAWFORDSVL +  CLOUDY    28  17  64 NW24      29.94R WCI  13
GREENCASTLE +  CLOUDY    30  18  59 NW8       29.95R WCI  23
LAFAYETTE      MOCLDY    25  13  60 NW20G28   29.98R WCI  11
TERRE HAUTE    CLOUDY    32  18  56 NW21G28   29.99R WCI  20

$$

INZ030>032-037>040-046>048-054>057-064-065-121200-
CENTRAL INDIANA

CITY           SKY/WX    TMP DP  RH WIND       PRES   REMARKS
FRANKFORT +    CLOUDY    29  20  69 N22G29    29.95R WCI  15
GREENWOOD *+   CLOUDY    33  28  80 NW14G22   29.92R WCI  24
INDIANAPOLIS   CLOUDY    30  21  69 NW20G31   29.92R WCI  17
-EAGLE CREEK   CLOUDY    30  21  69 NW18      29.91R WCI  18
KOKOMO +       CLOUDY    27  19  72 NW21      29.90R WCI  13
MT COMFORT *+  CLOUDY    28  27  93 NW15      29.89S WCI  17
SHELBYVILLE    CLOUDY    31  24  75 NW15      29.90R WCI  20

$$

INZ033-034-041-042-049-050-058-059-121200-
EAST CENTRAL INDIANA

CITY           SKY/WX    TMP DP  RH WIND       PRES   REMARKS
MUNCIE         CLOUDY    31  23  72 NW20G26   29.85R WCI  19
RICHMOND +     LGT RAIN  30  30 100 NW17G28   29.82R WCI  18

$$

INZ060-061-067>069-081>083-085>088-121200-
SOUTHWEST INDIANA

CITY           SKY/WX    TMP DP  RH WIND       PRES   REMARKS
EVANSVILLE     CLOUDY    35  31  85 NW12G21   30.02R WCI  27
HUNTINGBURG +  CLOUDY    34  29  82 NW16      30.00R WCI  24

$$

INZ062-063-066-070>080-084-089>092-121200-
SOUTH CENTRAL AND SOUTHEAST INDIANA

CITY           SKY/WX    TMP DP  RH WIND       PRES   REMARKS
BLOOMINGTON    CLOUDY    32  22  66 NW15G28   29.94R WCI  22
SEYMOUR +      CLOUDY    34  28  80 NW14      29.93R WCI  24

$$





USA.gov is the U.S. government's official web portal to all federal, state and local government web resources and services.